Location: Lugrin
(46.4033°N, 6.6674°E)
Time: 16:33:26
(UTC+00:00)

CZ-2C R/B - Pass Details

Date: 18 September 2020
Orbit: 785 x 870 km, 98.2° (Epoch: 29 October)

Event Time Altitude Azimuth Distance (km) Brightness Sun altitude
Rises 19:16:48 0° 14° (NNE) 3,412 6.0 -17.4°
Reaches altitude 10° 19:19:10 10° 16° (NNE) 2,484 5.2 -17.8°
Maximum altitude 19:24:43 78° 103° (ESE) 883 2.6 -18.7°
Drops below altitude 10° 19:30:18 10° 190° (S) 2,504 5.0 -19.5°
Sets 19:32:41 0° 192° (SSW) 3,441 5.7 -19.9°
